Showing default

UWE-4, 43880

Orbit data source: Space-Track

UWE-4, 43880 is a payload satellite owned by U Wurzburg (DE) in SSO that was launched on Thu, 27 Dec 2018 UTC via a SOYUZ-2-1A launch vehicle from the Vostochny Cosmodrome (VOSTO). Payload-class satellites include a variety of spacecraft equipped with specific instruments for various scientific and technological missions. These include communications satellites like Starlink; space stations such as the ISS; scientific satellites like the Hubble; Earth observation satellites from companies like Planet Labs, Umbra, and HawkEye 360; GPS; miniature CubeSats for education and research; and military/defense satellites.

Loading next visibility...
Identifier
43880, 2018-111E
Orbit
SSO
Country
Flag of DEDE / GER
Related business
Manufacturer
U Wurzburg
Mission
Operational Amateur Technology
Bus & Motor
CUBESAT 1U, Unknown motor
Mass
1 kg wet, 1 kg dry
Launch date (UTC)
2018-12-27 (7 years ago)
Launch vehicle
SOYUZ-2-1A
Launch site
Vostochny Cosmodrome (VOSTO)
Object type
Payload
Rocket body
Debris
Shape & HBR
Box, 0.1 m
Radar Cross Section
0.015 m², Small (<0.1 m²)

Expand to show TLE details & history
Last TLE update: 14 hours ago

TLE from 14 hours ago
0 UWE-4
1 43880U 18111E   25351.52401118  .00020711  00000-0  61813-3 0  9996
2 43880  97.5863 268.1812 0007202 254.7915 105.2532 15.34635386382819
Epoch: 2025-12-17T12:34Z
TLE epoch observation values (Epoch: 2025-12-17T12:34:34.565Z)
Latitude
0.00001°
Longitude
-6.85546°
Altitude
466.408 km
Speed
7.632 km/s
True Right ascension
17h 52m 43s
True Declination
0° 00' 00"
Sunlit
Object was in daylight at epoch
Visualization orbit readout
Latitude
Unknown
Longitude
Unknown
Altitude
Unknown
Speed
Unknown
Apparent Right ascension
Unknown
Apparent Declination
Unknown
Sunlit
N/A
Visualization observer readout
Local Sidereal Time
01:10:44
Azimuth
Unknown
Elevation
Unknown
Doppler factor
Unknown
Orbital elements
Apogee altitude
463.882 km
Perigee altitude
454.034 km
Semi-major axis
6,837.095 km
Eccentricity
0.00072
Inclination
97.5863°
RAAN
268.1812°
Arg. of periapsis
254.7915°
True anomaly
105.3328°
Mean anomaly
105.2532°
Eccentric anomaly
105.293°
Mean motion
3.83916 °/min
Orbital period
93.77 mins
BSTAR
0.00061813
Loading maneuver chart data...
Computing Atmospheric mass density...

Documentation

Showing up to 5 results
|